User: anonymous
Location: Unspecified
(0.0000°N, 0.0000°E)
Time: 14:14:49
(UTC+02:00)
Language:

Cosmos 407 Rocket - Orbit

View from above orbital plane
View from above orbital plane
View from above satellite
View from above satellite

Ground track
Ground track

The orbit data is extracted from the following two-line orbital elements,

1 05175U 71035B   14274.05308657  .00000361  00000-0  12857-3 0  5246
2 05175 074.0490 230.6813 0031133 323.1706 036.7308 14.37513111272656
Epoch (UTC): 01 October 2014 01:16:26
Eccentricity: 0.0031133
inclination: 74.0490°
perigee height: 744 km
apogee height: 789 km
right ascension of ascending node: 230.6813°
argument of perigee: 323.1706°
revolutions per day: 14.37513111
mean anomaly at epoch: 36.7308°
orbit number at epoch: 27265

The dashed part of the orbit path shows where the satellite is in the earth's shadow,  

DLR